World > North America > United States > Colorado

Wiley, Colorado Regional Weather

Lat: 38.16N, Lon: 102.72W
Wx Zone: COZ098Web Search
Wiley Weather Warning NWS WEATHER ALERT FOR THE WILEY, CO AREA - Issued: 856 PM MDT Thu Oct 22 2020 Wiley Weather Warning  

Helpful Tip: Type the letters wx in the search engine next time you need to find us.

Feedback
Wiley Weather Map
UTC Time: 10/23/2020, 08:52
Your Time:

Wiley, CO Regional Weather

Expires:202010230900;;700026
ASUS45 KBOU 230810
RWRCO 

WEATHER ROUNDUP FOR COLORADO
NATIONAL WEATHER SERVICE DENVER/BOULDER CO
200 AM MDT FRI OCT 23 2020

NOTE: "FAIR" INDICATES FEW OR NO CLOUDS BELOW 12000 FEET WITH NO
SIGNIFICANT WEATHER AND/OR OBSTRUCTIONS TO VISIBILITY.


COZ086-089-092>099-230900-
...SOUTHEAST COLORADO...
  
CITY           SKY/WX    TMP DP  RH WIND       PRES   REMARKS
PUEBLO         CLOUDY    35  22  58 NE9       30.27R WCI  28          
LA JUNTA       CLOUDY    35  25  66 N16       30.29R WCI  25          
LAMAR          MOCLDY    32  22  66 N16       30.28R WCI  21          
SPRINGFIELD      N/A     32  23  69 N21G33    30.23R WCI  20          
$$
  

SKY/WX - Weather  TMP - Temperature  DP - Dew Point  RH - Relative Humidity
WIND - Wind Direction/Speed PRES - Barometric Pressure VSB - Visibility
WCI - Wind Chill Index E13G22 Wind - East Wind 13 mph/Gusts of 22 mph